Location: Newark
(47.5783°N, 6.7622°E)
Time: 05:26:31
(UTC+00:00)

Transit 2A Rocket - All Passes

Search period start: 27 February 2020 00:00
Search period end: 08 March 2020 00:00
Orbit: 591 x 912 km, 66.7° (Epoch: 25 February)

Date Brightness Start Highest point End Pass type
(mag) Time Alt. Az. Time Alt. Az. Time Alt. Az.
27 Feb - 03:05:43 10° N 03:08:41 15° NNE 03:11:47 10° ENE visible
27 Feb - 04:47:16 10° NNW 04:52:18 55° NE 04:57:48 10° SE visible
27 Feb - 06:30:15 10° NW 06:34:41 28° WSW 06:39:26 10° S daylight
27 Feb - 19:28:00 10° SE 19:30:24 15° ESE 19:32:51 10° ENE night (unlit)
27 Feb - 21:07:58 10° SW 21:12:16 70° NW 21:16:52 10° NNE night (unlit)
27 Feb - 22:53:01 10° WNW 22:55:45 16° NNW 22:58:36 10° N night (unlit)
28 Feb - 02:23:45 10° N 02:25:36 12° NNE 02:27:30 10° NE visible
28 Feb - 04:04:53 10° NNW 04:09:36 37° NE 04:14:43 10° ESE visible
28 Feb - 05:47:19 10° NW 05:52:17 45° WSW 05:57:41 10° S visible
28 Feb - 20:25:28 10° SSW 20:29:45 67° ESE 20:34:17 10° NE night (unlit)
28 Feb - 22:09:21 10° W 22:12:47 22° NW 22:16:25 10° NNE night (unlit)
29 Feb - 03:22:33 10° NNW 03:26:48 26° NE 03:31:20 10° E visible
29 Feb - 05:04:38 10° NW 05:09:50 72° WSW 05:15:29 10° SSE visible
29 Feb - 06:49:36 10° W 06:51:41 12° WSW 06:53:48 10° SW daylight
29 Feb - 19:43:21 10° S 19:47:20 37° ESE 19:51:32 10° NE night (unlit)
29 Feb - 21:26:00 10° WSW 21:29:56 32° NW 21:34:07 10° NNE night (unlit)
29 Feb - 23:13:33 10° NNW 23:14:06 10° NNW 23:14:40 10° NNW night (unlit)
01 Mar - 02:40:19 10° N 02:43:53 19° NE 02:47:39 10° ENE visible
01 Mar - 04:22:05 10° NNW 04:27:16 73° NE 04:32:55 10° SE visible
01 Mar - 06:05:33 10° WNW 06:09:27 21° WSW 06:13:32 10° SSW daylight
01 Mar - 19:01:46 10° SSE 19:05:03 21° ESE 19:08:27 10° ENE visible
01 Mar - 20:42:58 10° SW 20:47:12 50° NW 20:51:43 10° NNE night (unlit)
01 Mar - 22:28:48 10° NW 22:30:58 13° NNW 22:33:13 10° N night (unlit)
02 Mar - 01:58:10 10° N 02:00:52 14° NNE 02:03:39 10° ENE visible
02 Mar - 03:39:38 10° NNW 03:44:37 48° NE 03:50:03 10° ESE visible
02 Mar - 05:22:24 10° NW 05:27:07 33° WSW 05:32:10 10° S visible
02 Mar - 18:21:15 10° SE 18:22:52 12° ESE 18:24:31 10° E visible
02 Mar - 20:00:15 10° SW 20:04:36 85° NW 20:09:14 10° NNE visible
02 Mar - 21:44:53 10° WNW 21:47:56 18° NNW 21:51:07 10° N night (unlit)
03 Mar - 01:16:19 10° N 01:17:44 11° NNE 01:19:12 10° NE visible
03 Mar - 02:57:16 10° NNW 03:01:53 32° NE 03:06:52 10° ESE visible
03 Mar - 04:39:34 10° NW 04:44:42 53° WSW 04:50:15 10° SSE visible
03 Mar - 19:17:53 10° SSW 19:22:06 55° ESE 19:26:35 10° NE visible
03 Mar - 21:01:21 10° W 21:05:00 25° NW 21:08:53 10° NNE visible
04 Mar - 02:14:57 10° NNW 02:19:02 23° NE 02:23:23 10° E visible
04 Mar - 03:56:56 10° NW 04:02:12 84° SW 04:07:55 10° SSE visible
04 Mar - 05:41:11 10° WNW 05:44:09 15° WSW 05:47:14 10° SW daylight
04 Mar - 18:35:56 10° S 18:39:44 31° ESE 18:43:45 10° NE visible
04 Mar - 20:18:06 10° WSW 20:22:11 37° NW 20:26:33 10° NNE visible
04 Mar - 22:04:48 10° NW 22:06:13 11° NNW 22:07:42 10° N visible
05 Mar - 01:32:44 10° N 01:36:05 17° NNE 01:39:36 10° ENE visible
05 Mar - 03:14:25 10° NNW 03:19:36 63° NE 03:25:15 10° SE visible
05 Mar - 04:57:37 10° WNW 05:01:54 25° WSW 05:06:26 10° SSW visible
05 Mar - 17:54:35 10° SSE 17:57:29 18° ESE 18:00:30 10° ENE visible
05 Mar - 19:35:11 10° SW 19:39:29 60° NW 19:44:07 10° NNE visible
05 Mar - 21:20:34 10° WNW 21:23:08 15° NNW 21:25:48 10° N visible
06 Mar - 00:50:38 10° N 00:53:01 13° NNE 00:55:30 10° NE visible
06 Mar - 02:32:00 10° NNW 02:36:56 42° NE 02:42:16 10° ESE visible
06 Mar - 04:14:36 10° NW 04:19:32 39° WSW 04:24:50 10° S visible
06 Mar - 18:52:35 10° SSW 18:56:55 80° ESE 19:01:34 10° NE visible
06 Mar - 20:36:48 10° W 20:40:07 20° NW 20:43:37 10° NNE visible
07 Mar - 00:08:57 10° N 00:09:52 10° NNE 00:10:48 10° NNE night (unlit)
07 Mar - 01:49:39 10° NNW 01:54:09 29° NE 01:58:58 10° ESE visible
07 Mar - 03:31:51 10° NW 03:37:05 63° WSW 03:42:46 10° SSE visible
07 Mar - 05:18:01 10° W 05:18:49 10° WSW 05:19:37 10° WSW visible
07 Mar - 18:10:21 10° S 18:14:29 45° ESE 18:18:52 10° NE visible
07 Mar - 19:53:22 10° WSW 19:57:13 28° NW 20:01:20 10° NNE visible
